Flag for Canada Weather past 2 weeks in Annapolis County, Nova Scotia, Canada

Now
68 °F

Mild.


Feels Like: 68 °F
Forecast: 63 / 73 °F
Wind: 1 mph from Southeast

Location: Kejimkujik 1

Current Time: Sep 2, 2014 at 8:48:08 AM

Latest Report: Sep 2, 2014 at 8:00 AM


Visibility: N/A

Pressure: 29.96 "Hg

Humidity: 96%

Dew point: 67 °F

Location of Annapolis CountyLocation

Historic Weather in Annapolis County — Graph

°F

Annapolis County temperature yesterday

Maximum temperature yesterday: 81 °F (at 5:00 PM)
Minimum temperature yesterday: 65 °F (at 4:00 AM)
Average temperature yesterday: 71 °F

Past Weeks' High & Low Weather Summary

 TemperatureHumidityPressure
High82 °F (Aug 27, 2:00 PM)100% (Aug 21, 8:00 AM)30.33 "Hg (Aug 21, 8:00 AM)
Low39 °F (Aug 30, 7:00 AM)41% (Aug 30, 5:00 PM)29.64 "Hg (Aug 28, 4:00 PM)
Average64 °F78%30.01 "Hg
* Reported Aug 18 7:00 AM — Sep 2 7:00 AM, Annapolis County, Weather by CustomWeather, © 2014

Note: Actual official high and low records may vary slightly from our data, if they occured in-between our weather recording intervals... More about our weather records

Advertising

Annapolis County weather history for previous 24 hours

 ConditionsComfort  
Time TempWeatherWind HumidityBarometerVisibility
7:00 AM
Sep 2
67 °FMild.No wind96%29.96 "HgN/A
6:00 AM68 °FMild.2 mph96%29.96 "HgN/A
5:00 AM68 °FMild.1 mph96%29.95 "HgN/A
4:00 AM68 °FMild.No wind96%29.95 "HgN/A
3:00 AM68 °FMild.No wind96%29.96 "HgN/A
2:00 AM68 °FMild.2 mph96%29.97 "HgN/A
1:00 AM68 °FMild.2 mph95%29.97 "HgN/A
12:00 AM69 °FMild.2 mph95%29.98 "HgN/A
11:00 PM
Sep 1
69 °FMild.2 mph94%29.97 "HgN/A
10:00 PM70 °FMild.3 mph92%29.96 "HgN/A
9:00 PM72 °FMild.2 mph84%29.96 "HgN/A
8:00 PM74 °FMild.3 mph84%29.97 "HgN/A
7:00 PM78 °FWarm.1 mph71%29.96 "HgN/A
6:00 PM80 °FWarm.1 mph66%29.96 "HgN/A
5:00 PM81 °FWarm.2 mph63%29.95 "HgN/A
4:00 PM78 °FWarm.2 mph75%29.96 "HgN/A
3:00 PM79 °FWarm.2 mph75%29.96 "HgN/A
2:00 PM77 °FMild.5 mph80%29.96 "HgN/A
1:00 PM76 °FMild.3 mph83%29.95 "HgN/A
12:00 PM73 °FMild.5 mph88%29.96 "HgN/A
11:00 AM71 °FMild.3 mph95%29.96 "HgN/A
10:00 AM68 °FMild.1 mph97%29.96 "HgN/A
9:00 AM67 °FMild.2 mph96%29.96 "HgN/A
8:00 AM66 °FMild.3 mph97%29.96 "HgN/A
Weather by CustomWeather, © 2014

See weather overviewHow to use our weather pages